Time,TemperatureF,DewpointF,PressureIn,WindDirection,WindDirectionDegrees,WindSpeedMPH,WindSpeedGustMPH,Humidity,HourlyPrecipIn,Conditions,Clouds,dailyrainin,SolarRadiationWatts/m^2,SoftwareType,DateUTC
2013-10-17 00:00:00,36.0,35.0,-100.00,South,182,1.0,2.0,96,-99.99,,,0.00,0.120000,,2013-10-17 07:00:00,
2013-10-17 00:52:00,36.0,35.0,-100.00,South,182,1.0,2.0,96,-99.99,,,0.00,0.120000,,2013-10-17 07:52:00,
2013-10-17 01:00:00,35.0,34.0,-100.00,SE,145,1.0,2.0,96,-99.99,,,0.00,0.120000,,2013-10-17 08:00:00,
2013-10-17 01:42:00,35.0,34.0,-100.00,SE,145,1.0,2.0,96,-99.99,,,0.00,0.120000,,2013-10-17 08:42:00,
2013-10-17 01:52:00,35.0,34.0,-100.00,SE,145,1.0,2.0,96,-99.99,,,0.00,0.120000,,2013-10-17 08:52:00,
2013-10-17 02:00:00,34.0,33.0,-100.00,SSE,151,2.0,3.0,97,-99.99,,,0.00,0.120000,,2013-10-17 09:00:00,
2013-10-17 02:53:00,34.0,33.0,-100.00,SSE,151,2.0,3.0,97,-99.99,,,0.00,0.120000,,2013-10-17 09:53:00,
2013-10-17 03:00:00,33.0,32.0,-100.00,SSE,156,1.0,2.0,97,-99.99,,,0.00,0.120000,,2013-10-17 10:00:00,
2013-10-17 03:42:00,33.0,32.0,-100.00,SSE,156,1.0,2.0,97,-99.99,,,0.00,0.120000,,2013-10-17 10:42:00,
2013-10-17 03:53:00,33.0,32.0,-100.00,SSE,156,1.0,2.0,97,-99.99,,,0.00,0.120000,,2013-10-17 10:53:00,
2013-10-17 04:00:00,32.0,31.0,-100.00,South,182,1.0,2.0,97,-99.99,,,0.00,0.120000,,2013-10-17 11:00:00,
2013-10-17 04:42:00,32.0,31.0,-100.00,South,182,1.0,2.0,97,-99.99,,,0.00,0.120000,,2013-10-17 11:42:00,
2013-10-17 04:52:00,32.0,31.0,-100.00,South,182,1.0,2.0,97,-99.99,,,0.00,0.120000,,2013-10-17 11:52:00,
2013-10-17 05:00:00,31.0,31.0,-100.00,SSE,164,1.0,2.0,97,-99.99,,,0.00,0.120000,,2013-10-17 12:00:00,
2013-10-17 05:52:00,31.0,31.0,-100.00,SSE,164,1.0,2.0,97,-99.99,,,0.00,0.120000,,2013-10-17 12:52:00,
2013-10-17 06:00:00,31.0,30.0,-100.00,SE,129,1.0,1.0,97,-99.99,,,0.00,0.120000,,2013-10-17 13:00:00,
2013-10-17 06:42:00,31.0,30.0,-100.00,SE,129,1.0,1.0,97,-99.99,,,0.00,0.120000,,2013-10-17 13:42:00,
2013-10-17 06:52:00,31.0,30.0,-100.00,SE,129,1.0,1.0,97,-99.99,,,0.00,0.120000,,2013-10-17 13:52:00,
2013-10-17 07:00:00,31.0,31.0,-100.00,SSE,151,2.0,3.0,97,-99.99,,,0.00,0.120000,,2013-10-17 14:00:00,
2013-10-17 07:52:00,31.0,31.0,-100.00,SSE,151,2.0,3.0,97,-99.99,,,0.00,0.120000,,2013-10-17 14:52:00,
2013-10-17 08:00:00,32.0,31.0,-100.00,SE,142,2.0,3.0,97,-99.99,,,0.00,15.690000,,2013-10-17 15:00:00,
2013-10-17 08:53:00,32.0,31.0,-100.00,SE,142,2.0,3.0,97,-99.99,,,0.00,15.690000,,2013-10-17 15:53:00,
2013-10-17 09:00:00,39.0,39.0,-100.00,South,170,0.0,2.0,98,-99.99,,,0.00,181.419998,,2013-10-17 16:00:00,
2013-10-17 09:53:00,39.0,39.0,-100.00,South,170,0.0,2.0,98,-99.99,,,0.00,181.419998,,2013-10-17 16:53:00,
2013-10-17 10:00:00,48.0,41.0,-100.00,East,101,1.0,2.0,78,-99.99,,,0.00,303.100006,,2013-10-17 17:00:00,
2013-10-17 10:42:00,48.0,41.0,-100.00,East,101,1.0,2.0,78,-99.99,,,0.00,303.100006,,2013-10-17 17:42:00,
2013-10-17 10:53:00,48.0,41.0,-100.00,East,101,1.0,2.0,78,-99.99,,,0.00,303.100006,,2013-10-17 17:53:00,
2013-10-17 11:00:00,51.0,41.0,-100.00,NNW,345,1.0,4.0,68,-99.99,,,0.00,416.070007,,2013-10-17 18:00:00,
2013-10-17 11:52:00,51.0,41.0,-100.00,NNW,345,1.0,4.0,68,-99.99,,,0.00,416.070007,,2013-10-17 18:52:00,
2013-10-17 12:00:00,56.0,44.0,-100.00,NW,312,1.0,3.0,63,-99.99,,,0.00,490.559998,,2013-10-17 19:00:00,
2013-10-17 12:42:00,56.0,44.0,-100.00,NW,312,1.0,3.0,63,-99.99,,,0.00,490.559998,,2013-10-17 19:42:00,
2013-10-17 12:53:00,56.0,44.0,-100.00,NW,312,1.0,3.0,63,-99.99,,,0.00,490.559998,,2013-10-17 19:53:00,
2013-10-17 13:00:00,61.0,45.0,-100.00,NW,326,3.0,7.0,55,-99.99,,,0.00,517.880005,,2013-10-17 20:00:00,
2013-10-17 13:42:00,61.0,45.0,-100.00,NW,326,3.0,7.0,55,-99.99,,,0.00,517.880005,,2013-10-17 20:42:00,
2013-10-17 13:52:00,61.0,45.0,-100.00,NW,326,3.0,7.0,55,-99.99,,,0.00,517.880005,,2013-10-17 20:52:00,
2013-10-17 14:00:00,64.0,41.0,-100.00,ENE,59,4.0,14.0,42,-99.99,,,0.00,492.660004,,2013-10-17 21:00:00,
2013-10-17 14:44:00,64.0,41.0,-100.00,ENE,59,4.0,14.0,42,-99.99,,,0.00,492.660004,,2013-10-17 21:44:00,
2013-10-17 14:54:00,64.0,41.0,-100.00,ENE,59,4.0,14.0,42,-99.99,,,0.00,492.660004,,2013-10-17 21:54:00,
2013-10-17 15:00:00,66.0,38.0,-100.00,NE,56,4.0,13.0,36,-99.99,,,0.00,421.529999,,2013-10-17 22:00:00,
2013-10-17 15:53:00,66.0,38.0,-100.00,NE,56,4.0,13.0,36,-99.99,,,0.00,421.529999,,2013-10-17 22:53:00,
2013-10-17 16:00:00,66.0,39.0,-100.00,ESE,112,3.0,9.0,37,-99.99,,,0.00,312.170013,,2013-10-17 23:00:00,
2013-10-17 16:43:00,66.0,39.0,-100.00,ESE,112,3.0,9.0,37,-99.99,,,0.00,312.170013,,2013-10-17 23:43:00,
2013-10-17 16:53:00,66.0,39.0,-100.00,ESE,112,3.0,9.0,37,-99.99,,,0.00,312.170013,,2013-10-17 23:53:00,
2013-10-17 17:00:00,66.0,39.0,-100.00,ESE,112,2.0,9.0,37,-99.99,,,0.00,173.169998,,2013-10-18 00:00:00,
2013-10-17 17:42:00,66.0,39.0,-100.00,ESE,112,2.0,9.0,37,-99.99,,,0.00,173.169998,,2013-10-18 00:42:00,
2013-10-17 17:53:00,66.0,39.0,-100.00,ESE,112,2.0,9.0,37,-99.99,,,0.00,173.169998,,2013-10-18 00:53:00,
2013-10-17 18:00:00,60.0,40.0,-100.00,North,5,1.0,4.0,46,-99.99,,,0.00,27.309999,,2013-10-18 01:00:00,
2013-10-17 18:52:00,60.0,40.0,-100.00,North,5,1.0,4.0,46,-99.99,,,0.00,27.309999,,2013-10-18 01:52:00,
2013-10-17 19:00:00,48.0,43.0,-100.00,SE,143,1.0,3.0,84,-99.99,,,0.00,0.000000,,2013-10-18 02:00:00,
2013-10-17 19:52:00,48.0,43.0,-100.00,SE,143,1.0,3.0,84,-99.99,,,0.00,0.000000,,2013-10-18 02:52:00,
2013-10-17 20:00:00,44.0,41.0,-100.00,SSE,147,2.0,3.0,90,-99.99,,,0.00,0.120000,,2013-10-18 03:00:00,
2013-10-17 20:55:00,44.0,41.0,-100.00,SSE,147,2.0,3.0,90,-99.99,,,0.00,0.120000,,2013-10-18 03:55:00,
2013-10-17 21:00:00,42.0,40.0,-100.00,SE,135,2.0,4.0,91,-99.99,,,0.00,0.120000,,2013-10-18 04:00:00,
2013-10-17 21:53:00,42.0,40.0,-100.00,SE,135,2.0,4.0,91,-99.99,,,0.00,0.120000,,2013-10-18 04:53:00,
2013-10-17 23:00:00,37.0,36.0,-100.00,SSE,161,2.0,4.0,95,-99.99,,,0.00,0.120000,,2013-10-18 06:00:00,
2013-10-17 23:52:00,37.0,36.0,-100.00,SSE,161,2.0,4.0,95,-99.99,,,0.00,0.120000,,2013-10-18 06:52:00,